[[{"header":{"parameterUnit":"m.s-1","parameterCategory":1,"la1":30.2991,"la2":30.254,"lo1":-89.0895,"lo2":-89.0444,"dy":0.0017,"dx":0.0017,"nx":28,"ny":28,"refTime":"2025-07-27T03:00:00:Z","depth":0,"parameterNumber":2,"parameterNumberName":"U-component_of_WINDS"},"data":[0,0,0,0,0,0,0,0,0,0,0,0,0,0,0,0,0,0,0,0,0,0,0,0,0,0,0,0,0,0,0,0,0,0,0,0,0,0,0,0,0,0,0,0,0,0,0,0,0,0,0,0,0,0,0,0,0,0,1.0151,1.015,0,1.0132,1.0131,1.0131,1.0092,1.0091,1.009,1.0089,1.007,1.007,1.007,0,0,0,0,0,0,0,0,0,0,0,0,0,1.0154,1.0154,1.0151,1.015,1.015,1.0132,1.0131,1.0131,1.0092,1.0091,1.009,1.0089,1.007,1.007,1.007,0,0,0,0,0,0,0,0,0,0,0,0,0,1.0146,1.0154,1.0151,1.0128,1.0126,1.0132,1.0131,1.0131,1.0092,1.0091,1.009,1.0089,1.007,1.007,1.007,1.0096,0,0,1.0071,1.0072,0,0,0,0,0,0,0,0,1.0146,1.0145,1.0132,1.013,1.0127,1.0113,1.0125,1.0119,1.0092,1.0105,1.0089,1.0088,1.0085,1.0084,1.0083,1.0095,1.0094,1.0071,1.0072,1.0072,1.0072,0,0,0,0,0,0,0,1.0147,1.0146,1.0143,1.0132,1.0129,1.012,1.0117,1.0124,1.0102,1.0104,1.0101,1.0099,1.0084,1.0083,1.0082,1.0094,1.0071,1.0072,1.0072,1.0072,1.0128,1.0129,0,0,0,0,0,0,1.015,1.0147,1.0144,1.0143,1.0134,1.0121,1.0118,1.0119,1.0102,1.0098,1.01,1.0098,1.0083,1.0082,1.0082,1.0112,1.0072,1.0072,1.0072,1.0127,1.0128,1.013,0,0,0,0,0,0,1.0151,1.0151,1.0144,1.0144,1.0142,1.0122,1.0123,1.0119,1.0118,1.0099,1.0095,1.0104,1.0082,1.0081,1.0093,1.0111,1.0072,1.0072,1.0125,1.0127,1.0129,1.0172,0,0,0,0,0,0,1.0151,1.0151,1.016,1.0144,1.0143,1.0156,1.0124,1.0119,1.0119,1.0115,1.0101,1.0098,1.0081,1.0093,1.0094,1.011,1.0073,1.0124,1.0126,1.0128,1.0169,1.0175,1.018,0,0,0,0,0,1.0151,1.0172,1.0161,1.0161,1.0154,1.0157,1.0156,1.0137,1.012,1.013,1.0118,1.0098,1.0108,1.0094,1.0095,1.0112,1.0122,1.0125,1.0128,1.0166,1.0174,1.018,0,0,0,0,0,0,1.019,1.017,1.0157,1.0173,1.0168,1.0151,1.0162,1.0145,1.0144,1.014,1.0116,1.0113,1.0129,1.0121,1.0106,1.0137,1.0112,1.0115,1.0141,1.0148,1.0154,1.0156,1.0073,0,0,0,0,0,1.0201,1.0205,1.0187,1.0204,1.0202,1.0183,1.0183,1.0169,1.0162,1.0159,1.0148,1.0142,1.0144,1.0145,1.0146,1.0167,1.0165,1.018,1.0185,1.019,1.0193,1.0206,1.0213,1.0139,1.0139,1.0139,0,0,1.0223,1.0212,1.0216,1.0212,1.0205,1.0211,1.018,1.0187,1.0192,1.016,1.0171,1.0163,1.0154,1.0172,1.0179,1.0166,1.0213,1.0194,1.0198,1.0199,1.021,1.0217,1.0223,1.0141,1.0141,1.0141,0,0,1.0266,1.0258,1.0272,1.0266,1.0257,1.0245,1.0248,1.0234,1.0227,1.0238,1.0215,1.022,1.0223,1.0219,1.0217,1.0261,1.0243,1.0261,1.0292,1.0304,1.031,1.0315,1.0332,1.0338,1.0264,1.0265,1.0265,0,1.0294,1.0302,1.0281,1.029,1.0289,1.0261,1.0275,1.0271,1.0263,1.0263,1.0249,1.0254,1.0246,1.0263,1.0274,1.0273,1.0277,1.0263,1.0311,1.0316,1.032,1.0336,1.0343,1.0267,1.0267,1.0266,1.0266,0,1.0338,1.0344,1.0356,1.035,1.035,1.0362,1.0343,1.0346,1.0332,1.0321,1.0333,1.0323,1.0322,1.0325,1.0311,1.034,1.0333,1.0315,1.029,1.033,1.0345,1.0351,1.027,1.027,1.0269,1.0268,0,0,1.0405,1.0388,1.0392,1.039,1.0379,1.0383,1.0394,1.0393,1.0397,1.0393,1.0402,1.0406,1.0391,1.0389,1.0374,1.0385,1.0422,1.0366,1.0365,1.0378,1.0456,1.047,1.0477,1.041,1.0411,1.0412,1.0457,0,1.0446,1.0464,1.0446,1.0468,1.0474,1.0448,1.0457,1.0452,1.0442,1.0446,1.0436,1.044,1.0418,1.0417,1.0426,1.0415,1.0437,1.0412,1.0419,1.042,1.0423,1.0485,1.0499,1.0542,1.0462,1.0463,1.0464,0,1.0497,1.0496,1.0518,1.0507,1.0509,1.0518,1.0517,1.0521,1.0515,1.0507,1.0506,1.0488,1.0499,1.0474,1.049,1.0473,1.0475,1.047,1.0471,1.0472,1.0445,1.0488,1.0555,1.0563,1.0472,1.0472,1.0471,0,1.0545,1.0549,1.0564,1.0562,1.0549,1.0556,1.0551,1.0544,1.0545,1.0544,1.0545,1.0545,1.0546,1.0547,1.053,1.0514,1.0548,1.0522,1.0543,1.0544,1.0552,1.0552,1.0622,1.0552,1.0552,1.0551,1.0551,0,1.0594,1.0609,1.0585,1.0595,1.0611,1.0591,1.0608,1.06,1.0594,1.0602,1.0579,1.0586,1.0564,1.0569,1.0556,1.0572,1.0572,1.0567,1.0563,1.057,1.0571,1.0571,1.0568,1.0553,1.0553,1.0552,1.0552,0,1.0651,1.0636,1.065,1.0637,1.0634,1.0647,1.0636,1.0645,1.0634,1.0644,1.0645,1.0628,1.0634,1.0617,1.062,1.0611,1.0635,1.0626,1.0637,1.0635,1.0658,1.0656,1.0732,1.0741,1.0664,1.0664,1.0665,0,1.0684,1.0695,1.0684,1.0687,1.0684,1.069,1.0691,1.0672,1.0675,1.0669,1.0679,1.0682,1.0684,1.0695,1.0683,1.0685,1.0677,1.0703,1.0677,1.0684,1.0679,1.0679,1.0681,1.0709,1.071,1.0711,1.0711,0,1.0744,1.0736,1.0739,1.0741,1.0744,1.0743,1.0742,1.0746,1.0725,1.073,1.0735,1.0737,1.074,1.0745,1.0745,1.074,1.0723,1.072,1.0725,1.0732,1.0739,1.0737,1.0653,1.0718,1.0717,1.0717,1.0717,1.0716,1.0791,1.08,1.0794,1.0799,1.0796,1.0796,1.0803,1.0794,1.0798,1.08,1.0788,1.0797,1.0792,1.079,1.0787,1.0794,1.0782,1.0789,1.0791,1.0794,1.0799,1.0737,1.0794,1.0794,1.0793,1.0793,1.0793,0,1.0851,1.0846,1.0851,1.085,1.0854,1.0838,1.0835,1.084,1.0848,1.0845,1.0848,1.0855,1.086,1.0849,1.0852,1.086,1.0852,1.0861,1.0861,1.0861,1.0808,1.0804,1.0868,1.0868,1.0868,1.0868,1.0868,1.0868,1.0883,1.0899,1.0891,1.0905,1.09,1.0909,1.0909,1.0909,1.0907,1.0916,1.092,1.0913,1.0907,1.091,1.0914,1.0911,1.0913,1.0926,1.092,1.0871,1.0864,1.0857,1.0853,1.0926,1.0926,1.0972,1.0973,1.0973]},{"header":{"parameterUnit":"m.s-1","parameterCategory":1,"la1":30.2991,"la2":30.254,"lo1":-89.0895,"lo2":-89.0444,"dy":0.0017,"dx":0.0017,"nx":28,"ny":28,"refTime":"2025-07-27T03:00:00:Z","depth":0,"parameterNumber":3,"parameterNumberName":"V-component_of_WINDS"},"data":[0,0,0,0,0,0,0,0,0,0,0,0,0,0,0,0,0,0,0,0,0,0,0,0,0,0,0,0,0,0,0,0,0,0,0,0,0,0,0,0,0,0,0,0,0,0,0,0,0,0,0,0,0,0,0,0,0,0,-3.8114,-3.8115,0,-3.8133,-3.8134,-3.8134,-3.8112,-3.8111,-3.8111,-3.811,-3.8127,-3.8128,-3.8129,0,0,0,0,0,0,0,0,0,0,0,0,0,-3.8058,-3.806,-3.8114,-3.8115,-3.8115,-3.8133,-3.8134,-3.8134,-3.8112,-3.8111,-3.811,-3.811,-3.8127,-3.8128,-3.8129,0,0,0,0,0,0,0,0,0,0,0,0,0,-3.8081,-3.806,-3.8114,-3.8106,-3.8106,-3.8133,-3.8134,-3.8134,-3.8113,-3.8111,-3.811,-3.8109,-3.8126,-3.8128,-3.813,-3.8165,0,0,-3.8135,-3.8136,0,0,0,0,0,0,0,0,-3.8079,-3.8083,-3.8107,-3.8107,-3.8106,-3.8119,-3.812,-3.8144,-3.8113,-3.811,-3.811,-3.8108,-3.8125,-3.8127,-3.8133,-3.8166,-3.8167,-3.8135,-3.8136,-3.8137,-3.8138,0,0,0,0,0,0,0,-3.8078,-3.8082,-3.8122,-3.8108,-3.8107,-3.8102,-3.8103,-3.8125,-3.8124,-3.811,-3.8109,-3.8111,-3.8125,-3.8131,-3.8133,-3.8167,-3.8135,-3.8137,-3.8138,-3.8139,-3.8232,-3.8234,0,0,0,0,0,0,-3.8077,-3.8081,-3.8121,-3.8122,-3.809,-3.8104,-3.8106,-3.8116,-3.8124,-3.8124,-3.8112,-3.811,-3.8129,-3.8131,-3.8134,-3.8178,-3.8137,-3.8139,-3.814,-3.8231,-3.8233,-3.8234,0,0,0,0,0,0,-3.8076,-3.8081,-3.812,-3.8101,-3.8106,-3.8106,-3.8118,-3.8117,-3.8124,-3.8126,-3.8125,-3.8119,-3.8128,-3.8131,-3.8158,-3.8178,-3.814,-3.8141,-3.8229,-3.8232,-3.8233,-3.8265,0,0,0,0,0,0,-3.8075,-3.8081,-3.8094,-3.8102,-3.8107,-3.8145,-3.8119,-3.8119,-3.8128,-3.8125,-3.8132,-3.8132,-3.8127,-3.8156,-3.816,-3.818,-3.8143,-3.8228,-3.823,-3.8233,-3.8262,-3.8268,-3.8273,0,0,0,0,0,-3.8073,-3.8101,-3.8095,-3.81,-3.8124,-3.8146,-3.8149,-3.8144,-3.8129,-3.8143,-3.8144,-3.8132,-3.8175,-3.8159,-3.8163,-3.8184,-3.8226,-3.823,-3.8233,-3.826,-3.8267,-3.8273,0,0,0,0,0,0,-3.8095,-3.8102,-3.8095,-3.8127,-3.8136,-3.8142,-3.8159,-3.8151,-3.8163,-3.816,-3.8153,-3.8155,-3.8184,-3.8186,-3.8168,-3.822,-3.8198,-3.8203,-3.8218,-3.8224,-3.8229,-3.8229,-3.8144,0,0,0,0,0,-3.8104,-3.8122,-3.8127,-3.8154,-3.8159,-3.8159,-3.8168,-3.8164,-3.8172,-3.8176,-3.8179,-3.8187,-3.8203,-3.8214,-3.8228,-3.8262,-3.8265,-3.8279,-3.8285,-3.8289,-3.8293,-3.8314,-3.8321,-3.8245,-3.8245,-3.8244,0,0,-3.8121,-3.8128,-3.8139,-3.8159,-3.8165,-3.8185,-3.8162,-3.8182,-3.8196,-3.8178,-3.8205,-3.8208,-3.8217,-3.8249,-3.8262,-3.8252,-3.8315,-3.8293,-3.8296,-3.8298,-3.8318,-3.8325,-3.8332,-3.8247,-3.8246,-3.8246,0,0,-3.8164,-3.817,-3.8195,-3.8203,-3.8214,-3.8214,-3.822,-3.8228,-3.8229,-3.8256,-3.8244,-3.826,-3.8287,-3.8295,-3.8302,-3.8351,-3.8341,-3.8356,-3.8384,-3.8404,-3.841,-3.8416,-3.8435,-3.8442,-3.836,-3.836,-3.836,0,-3.8184,-3.8213,-3.8208,-3.8231,-3.8241,-3.8227,-3.8253,-3.826,-3.8275,-3.8282,-3.827,-3.8305,-3.831,-3.8345,-3.8357,-3.8362,-3.837,-3.8355,-3.841,-3.8415,-3.842,-3.8438,-3.8446,-3.8362,-3.8361,-3.8361,-3.8361,0,-3.8239,-3.8259,-3.8278,-3.8295,-3.8307,-3.833,-3.833,-3.8342,-3.8337,-3.8338,-3.8367,-3.8373,-3.8389,-3.8397,-3.8391,-3.8431,-3.8425,-3.8411,-3.8389,-3.843,-3.8447,-3.8453,-3.8364,-3.8364,-3.8363,-3.8363,0,0,-3.8294,-3.8311,-3.8318,-3.8327,-3.8339,-3.8355,-3.8378,-3.8396,-3.8408,-3.8419,-3.8439,-3.8464,-3.8452,-3.8461,-3.8456,-3.8474,-3.8515,-3.8459,-3.8459,-3.8471,-3.8562,-3.8573,-3.8581,-3.8508,-3.8509,-3.851,-3.8562,0,-3.8339,-3.8382,-3.8379,-3.8419,-3.8439,-3.8428,-3.8449,-3.8459,-3.8461,-3.8478,-3.848,-3.8499,-3.8481,-3.8487,-3.8504,-3.8506,-3.8533,-3.8502,-3.8528,-3.8529,-3.8527,-3.859,-3.8601,-3.8649,-3.8568,-3.8569,-3.857,0,-3.8396,-3.8412,-3.8455,-3.8467,-3.8475,-3.8494,-3.8512,-3.8528,-3.8539,-3.854,-3.8551,-3.8544,-3.8569,-3.8546,-3.8581,-3.856,-3.857,-3.8573,-3.8575,-3.8578,-3.8553,-3.8596,-3.8664,-3.8672,-3.858,-3.8579,-3.8579,0,-3.8435,-3.8467,-3.8497,-3.8505,-3.8519,-3.8533,-3.854,-3.855,-3.8562,-3.8577,-3.8585,-3.8602,-3.8611,-3.8625,-3.8623,-3.8606,-3.8659,-3.8635,-3.8661,-3.8661,-3.8673,-3.8672,-3.8745,-3.8677,-3.8677,-3.8677,-3.8677,0,-3.8486,-3.8513,-3.8515,-3.8534,-3.8565,-3.8562,-3.8592,-3.8597,-3.8607,-3.8627,-3.8617,-3.8635,-3.8631,-3.865,-3.8648,-3.8679,-3.8682,-3.8684,-3.8683,-3.8686,-3.8686,-3.8693,-3.869,-3.8679,-3.8678,-3.8678,-3.8678,0,-3.8534,-3.8537,-3.857,-3.8582,-3.8586,-3.8608,-3.8618,-3.8636,-3.8639,-3.8664,-3.867,-3.8673,-3.8695,-3.8694,-3.8718,-3.8717,-3.8755,-3.875,-3.8752,-3.8751,-3.8777,-3.8776,-3.8859,-3.887,-3.8793,-3.8794,-3.8794,0,-3.8567,-3.8588,-3.8604,-3.8617,-3.8625,-3.8647,-3.8659,-3.8658,-3.8671,-3.8688,-3.8705,-3.8726,-3.8743,-3.8778,-3.8782,-3.8801,-3.8797,-3.8825,-3.88,-3.8803,-3.88,-3.88,-3.8803,-3.883,-3.8831,-3.8832,-3.8833,0,-3.8626,-3.8627,-3.8646,-3.8667,-3.8684,-3.8699,-3.8714,-3.8725,-3.8725,-3.8741,-3.8765,-3.8778,-3.8804,-3.8826,-3.8844,-3.8851,-3.8842,-3.8841,-3.8848,-3.8851,-3.8852,-3.8854,-3.8767,-3.8839,-3.8838,-3.8838,-3.8837,-3.8837,-3.8669,-3.8688,-3.8703,-3.8726,-3.8737,-3.8752,-3.8771,-3.8776,-3.8796,-3.8819,-3.8816,-3.8842,-3.8855,-3.888,-3.8888,-3.8909,-3.8899,-3.8909,-3.8912,-3.8915,-3.8919,-3.8848,-3.8912,-3.8912,-3.8911,-3.8911,-3.8911,0,-3.8728,-3.8738,-3.8759,-3.8782,-3.88,-3.8792,-3.8808,-3.8824,-3.8848,-3.8862,-3.888,-3.8907,-3.8929,-3.8936,-3.8957,-3.8972,-3.8969,-3.8978,-3.8977,-3.898,-3.8925,-3.8918,-3.898,-3.898,-3.898,-3.898,-3.898,-3.898,-3.8762,-3.8795,-3.8799,-3.8838,-3.8847,-3.8874,-3.8885,-3.8899,-3.891,-3.8942,-3.8961,-3.8966,-3.8977,-3.8999,-3.9019,-3.9021,-3.903,-3.9041,-3.9041,-3.899,-3.8983,-3.8976,-3.897,-3.9042,-3.9042,-3.9094,-3.9094,-3.9094]}]]